TimeEDT,TemperatureF,Dew PointF,Humidity,Sea Level PressureIn,VisibilityMPH,Wind Direction,Wind SpeedMPH,Gust SpeedMPH,PrecipitationIn,Events,Conditions,WindDirDegrees,DateUTC
12:51 AM,57.9,55.9,93,30.08,10.0,Calm,Calm,-,N/A,,Overcast,0,2013-07-27 04:51:00
1:01 AM,57.2,55.4,94,30.08,10.0,Calm,Calm,-,N/A,,Overcast,0,2013-07-27 05:01:00
1:51 AM,55.0,53.1,93,30.07,10.0,Calm,Calm,-,N/A,,Clear,0,2013-07-27 05:51:00
2:43 AM,53.6,51.8,94,30.08,2.5,Calm,Calm,-,N/A,,Clear,0,2013-07-27 06:43:00
2:49 AM,53.6,51.8,94,30.08,8.0,Calm,Calm,-,N/A,,Partly Cloudy,0,2013-07-27 06:49:00
2:50 AM,53.1,52.0,96,30.08,10.0,Calm,Calm,-,N/A,,Partly Cloudy,0,2013-07-27 06:50:00
3:05 AM,55.4,53.6,94,30.07,1.8,Calm,Calm,-,N/A,,Mostly Cloudy,0,2013-07-27 07:05:00
3:07 AM,55.4,53.6,94,30.07,1.0,Calm,Calm,-,N/A,,Mist,0,2013-07-27 07:07:00
3:14 AM,53.6,53.6,100,30.07,0.2,Calm,Calm,-,N/A,Fog,Fog,0,2013-07-27 07:14:00
3:51 AM,55.0,55.0,100,30.07,0.2,Calm,Calm,-,N/A,Fog,Fog,0,2013-07-27 07:51:00
4:51 AM,54.0,54.0,100,30.08,0.2,Calm,Calm,-,0.01,Fog,Fog,0,2013-07-27 08:51:00
5:51 AM,51.1,51.1,100,30.09,0.2,South,4.6,-,N/A,Fog,Fog,190,2013-07-27 09:51:00
6:51 AM,54.0,54.0,100,30.09,0.2,Calm,Calm,-,N/A,Fog,Fog,0,2013-07-27 10:51:00
7:51 AM,55.0,55.0,100,30.10,0.5,Calm,Calm,-,N/A,Fog,Fog,0,2013-07-27 11:51:00
8:43 AM,57.2,55.4,94,30.11,1.2,Calm,Calm,-,N/A,,Overcast,0,2013-07-27 12:43:00
8:51 AM,57.0,55.9,96,30.11,1.0,NE,3.5,-,N/A,,Overcast,50,2013-07-27 12:51:00
8:58 AM,55.4,55.4,100,30.11,1.5,Calm,Calm,-,N/A,,Overcast,0,2013-07-27 12:58:00
9:04 AM,57.2,57.2,100,30.11,3.0,Calm,Calm,-,N/A,,Overcast,0,2013-07-27 13:04:00
9:23 AM,59.0,57.2,94,30.10,10.0,Calm,Calm,-,N/A,,Scattered Clouds,0,2013-07-27 13:23:00
9:51 AM,64.0,57.9,80,30.10,10.0,Calm,Calm,-,N/A,,Clear,0,2013-07-27 13:51:00
10:51 AM,70.0,57.9,65,30.09,10.0,Calm,Calm,-,N/A,,Clear,0,2013-07-27 14:51:00
11:51 AM,73.9,57.0,55,30.09,10.0,ESE,5.8,-,N/A,,Partly Cloudy,110,2013-07-27 15:51:00
12:51 PM,77.0,59.0,54,30.06,10.0,Variable,3.5,-,N/A,,Clear,0,2013-07-27 16:51:00
1:51 PM,77.0,55.9,48,30.06,10.0,Variable,5.8,-,N/A,,Partly Cloudy,0,2013-07-27 17:51:00
2:51 PM,78.1,57.0,48,30.05,10.0,Calm,Calm,-,N/A,,Clear,0,2013-07-27 18:51:00
3:51 PM,79.0,57.0,47,30.04,10.0,SSE,9.2,-,N/A,,Clear,160,2013-07-27 19:51:00
4:51 PM,80.1,57.0,45,30.04,10.0,South,5.8,-,N/A,,Clear,170,2013-07-27 20:51:00
5:51 PM,75.9,57.9,54,30.03,10.0,Variable,4.6,-,N/A,,Clear,0,2013-07-27 21:51:00
6:51 PM,77.0,57.0,50,30.02,10.0,South,3.5,-,N/A,,Clear,180,2013-07-27 22:51:00
7:51 PM,69.1,61.0,75,30.02,10.0,South,4.6,-,N/A,,Clear,170,2013-07-27 23:51:00
8:51 PM,66.0,60.1,81,30.04,10.0,Calm,Calm,-,N/A,,Clear,0,2013-07-28 00:51:00
9:51 PM,63.0,60.1,90,30.05,10.0,Calm,Calm,-,N/A,,Clear,0,2013-07-28 01:51:00
10:51 PM,62.1,59.0,90,30.04,10.0,Calm,Calm,-,N/A,,Clear,0,2013-07-28 02:51:00
11:51 PM,61.0,57.9,90,30.03,10.0,Calm,Calm,-,N/A,,Clear,0,2013-07-28 03:51:00